{"data":{"norad_id":55576,"intl_designator":"2023-020H","name":"STARLINK-5751","alt_names":[],"object_type":"PAYLOAD","status":"ACTIVE","operator":null,"country":"US","launch_date":"2023-02-12","launch_site_code":"AFETR","launch_vehicle":null,"mission":null,"orbit_class":"UNKNOWN","rcs_meters":null,"size_class":null,"mass_kg":null,"dimensions":null,"purposes":["comms"],"wikipedia_slug":null,"has_3d_model":false,"image_url":null,"decayed_at":null,"tle_current":{"epoch":"2026-09-20T15:03:57.109248Z","epoch_age_seconds":89368,"freshness":"FRESH","line1":"1 55576U 23020H   26263.62774432  .00000098  00000+0  13106-4 0  9990","line2":"2 55576  43.0037 318.5068 0001576 269.5577  90.5095 15.27575613199029","mean_motion":15.27575613,"eccentricity":0.0001576,"inclination_deg":43.0037,"raan_deg":318.5068,"arg_perigee_deg":269.5577,"mean_anomaly_deg":90.5095,"bstar":1.3106e-5,"rev_number":19902,"period_min":94.267019435587,"perigee_km":481.98090732829,"apogee_km":484.14355732632,"semimajor_km":6861.1992323273,"source":"CELESTRAK","updated_at":"2026-09-21T09:00:33.264184Z"}}}